Date String (YYYY-MM-DD hh:mm:ss) UTC,Instrument flags,Ambient pressure (hPa),Sample flow (lpm),Bypass flow (lpm),Sample temperature (°C),Ambient temperature (°C),ASC tube jacket temperature (°C),LED temperature (°C),Box temperature (°C),Sample RH (%),Span deviation,Mass concentration (μg/m³),Mass concentration (μg/m³),Mass concentration (μg/m³)
DateTimeUTC,F1_M11,P_M11,Q1_M11,Q2_M11,T1_M11,T2_M11,T3_M11,T4_M11,T5_M11,U1_M11,ZSPAN_M11,X0_M11,X2_M11,X1_M11
2023-02-03 02:00:00,,0833.3,4.99,0.00,27.3,25.6,00.0,36.2,29.1,09.1,0001.6,0017.99,0012.11,0011.14
2023-02-03 02:01:00,,0833.3,5.02,0.00,27.3,25.7,00.0,36.2,29.1,09.1,0000.9,0018.01,0012.04,0011.06
2023-02-03 02:02:00,,0833.3,4.97,0.00,27.3,25.7,00.0,36.2,29.1,09.1,0000.8,0017.61,0011.89,0010.95
2023-02-03 02:03:00,,0833.3,5.04,0.00,27.3,25.6,00.0,36.2,29.1,09.1,0001.0,0016.92,0011.75,0010.84
2023-02-03 02:04:00,,0833.3,4.96,0.00,27.3,25.6,00.0,36.2,29.1,09.1,0001.4,0017.02,0011.50,0010.63
2023-02-03 02:05:00,,0833.3,5.06,0.00,27.3,25.6,00.0,36.2,29.0,09.1,0000.1,0016.90,0011.25,0010.39
2023-02-03 02:06:00,,0833.2,4.96,0.00,27.3,25.6,00.0,36.2,29.0,09.1,0000.0,0016.80,0010.92,0010.09
2023-02-03 02:07:00,,0833.2,5.03,0.00,27.3,25.6,00.0,36.2,29.0,09.1,0000.0,0016.43,0010.61,0009.82
2023-02-03 02:08:00,,0833.3,4.96,0.00,27.3,25.6,00.0,36.1,29.0,09.1,0000.0,0016.29,0010.40,0009.60
2023-02-03 02:09:00,,0833.3,5.03,0.00,27.3,25.6,00.0,36.1,29.0,09.1,0000.0,0016.05,0010.16,0009.37
2023-02-03 02:10:00,,0833.4,4.96,0.00,27.2,25.5,00.0,36.1,29.0,09.1,0000.0,0015.61,0009.87,0009.10
2023-02-03 02:11:00,,0833.4,5.03,0.00,27.2,25.5,00.0,36.1,29.0,09.2,0000.0,0015.57,0009.59,0008.89
2023-02-03 02:12:00,,0833.5,4.97,0.00,27.2,25.6,00.0,36.1,29.0,09.2,0000.0,0015.22,0009.45,0008.80
2023-02-03 02:13:00,,0833.3,5.02,0.00,27.2,25.6,00.0,36.1,29.0,09.2,0000.0,0015.18,0009.41,0008.75
2023-02-03 02:14:00,,0833.3,4.97,0.00,27.2,25.5,00.0,36.1,29.0,09.2,0000.0,0015.15,0009.34,0008.69
2023-02-03 02:15:00,,0833.3,5.03,0.00,27.2,25.5,00.0,36.1,28.9,09.2,0000.0,0014.55,0009.18,0008.56
2023-02-03 02:16:00,,0833.3,4.97,0.00,27.2,25.5,00.0,36.1,29.0,09.2,0000.0,0014.69,0009.06,0008.45
2023-02-03 02:17:00,,0833.4,4.99,0.00,27.2,25.5,00.0,36.1,29.0,09.2,0000.0,0014.98,0008.92,0008.32
2023-02-03 02:18:00,,0833.4,5.02,0.00,27.2,25.5,00.0,36.1,28.9,09.2,0000.0,0015.86,0008.88,0008.24
2023-02-03 02:19:00,,0833.5,4.97,0.00,27.2,25.5,00.0,36.0,28.9,09.2,0000.0,0015.67,0008.78,0008.18
2023-02-03 02:20:00,,0833.4,5.05,0.00,27.1,25.5,00.0,36.0,28.9,09.2,0000.0,0015.89,0008.74,0008.14
2023-02-03 02:21:00,,0833.4,5.00,0.00,27.1,25.5,00.0,36.0,28.9,09.2,0000.0,0016.22,0008.75,0008.13
2023-02-03 02:22:00,,0833.4,5.00,0.00,27.1,25.5,00.0,36.0,28.9,09.2,0000.0,0015.92,0008.79,0008.12
2023-02-03 02:23:00,,0833.4,5.01,0.00,27.1,25.5,00.0,36.0,28.9,09.2,0000.0,0016.25,0008.69,0008.00
2023-02-03 02:24:00,,0833.4,4.97,0.00,27.1,25.5,00.0,36.0,28.9,09.2,0000.0,0016.32,0008.55,0007.88
2023-02-03 02:25:00,,0833.4,5.02,0.00,27.1,25.4,00.0,36.0,28.9,09.2,0000.0,0016.11,0008.43,0007.77
2023-02-03 02:26:00,,0833.4,4.97,0.00,27.1,25.4,00.0,36.0,28.9,09.2,0000.0,0016.19,0008.43,0007.77
2023-02-03 02:27:00,,0833.5,5.03,0.00,27.1,25.4,00.0,36.0,28.9,09.2,0000.0,0015.36,0008.44,0007.82
2023-02-03 02:28:00,,0833.5,4.98,0.00,27.1,25.4,00.0,36.0,28.9,09.2,0000.0,0014.52,0008.51,0007.89
2023-02-03 02:29:00,,0833.5,5.04,0.00,27.1,25.4,00.0,35.9,28.8,09.2,0000.0,0013.81,0008.60,0007.98
2023-02-03 02:30:00,,0833.5,5.01,0.00,27.1,25.4,00.0,35.9,28.8,09.2,0000.0,0014.00,0008.67,0008.04
2023-02-03 02:31:00,,0833.5,4.98,0.00,27.1,25.4,00.0,35.9,28.8,09.2,0000.0,0013.76,0008.74,0008.11
2023-02-03 02:32:00,,0833.5,5.04,0.00,27.0,25.4,00.0,35.9,28.8,09.2,0000.0,0013.48,0008.76,0008.09
2023-02-03 02:33:00,,0833.6,4.97,0.00,27.0,25.4,00.0,35.9,28.8,09.2,0000.0,0013.26,0008.68,0008.03
2023-02-03 02:34:00,,0833.6,5.03,0.00,27.0,25.4,00.0,35.9,28.8,09.2,0000.0,0012.73,0008.67,0008.02
2023-02-03 02:35:00,,0833.6,4.96,0.00,27.0,25.3,00.0,35.9,28.7,09.2,0000.0,0012.56,0008.71,0008.07
2023-02-03 02:36:00,,0833.6,5.05,0.00,27.0,25.2,00.0,35.9,28.7,09.2,0000.0,0012.68,0008.77,0008.11
2023-02-03 02:37:00,,0833.5,5.01,0.00,26.9,25.2,00.0,35.8,28.6,09.3,0000.0,0012.77,0008.81,0008.14
2023-02-03 02:38:00,,0833.5,4.96,0.00,26.9,25.2,00.0,35.8,28.6,09.3,0000.0,0012.76,0008.78,0008.09
2023-02-03 02:39:00,,0833.5,5.02,0.00,26.9,25.2,00.0,35.8,28.6,09.3,0000.0,0012.85,0008.81,0008.10
2023-02-03 02:40:00,,0833.5,4.97,0.00,26.9,25.2,00.0,35.8,28.6,09.3,0000.0,0012.89,0008.82,0008.11
2023-02-03 02:41:00,,0833.5,5.01,0.00,26.9,25.2,00.0,35.8,28.6,09.3,0000.0,0013.07,0008.85,0008.12
2023-02-03 02:42:00,,0833.5,5.02,0.00,26.8,25.1,00.0,35.8,28.6,09.3,0000.0,0013.25,0008.86,0008.14
2023-02-03 02:43:00,,0833.5,4.97,0.00,26.8,25.2,00.0,35.8,28.6,09.3,0000.0,0013.47,0008.92,0008.24
2023-02-03 02:44:00,,0833.5,5.00,0.00,26.8,25.2,00.0,35.8,28.6,09.3,0000.0,0013.88,0009.04,0008.36
2023-02-03 02:45:00,,0833.5,5.02,0.00,26.8,25.1,00.0,35.7,28.6,09.3,0000.0,0014.15,0009.17,0008.47
2023-02-03 02:46:00,,0833.5,5.00,0.00,26.8,25.1,00.0,35.7,28.5,09.3,0000.0,0014.85,0009.26,0008.49
2023-02-03 02:47:00,,0833.5,4.99,0.00,26.8,24.9,00.0,35.7,28.5,09.4,0000.0,0016.20,0009.30,0008.53
2023-02-03 02:48:00,,0833.5,5.01,0.00,26.7,24.7,00.0,35.7,28.4,09.4,0000.0,0016.05,0009.33,0008.58
2023-02-03 02:49:00,,0833.6,5.00,0.00,26.7,24.6,00.0,35.7,28.3,09.5,0000.0,0016.51,0009.49,0008.71
2023-02-03 02:50:00,,0833.6,4.97,0.00,26.6,24.6,00.0,35.6,28.3,09.5,0000.0,0016.82,0009.72,0008.94
2023-02-03 02:51:00,,0833.5,4.98,0.00,26.6,24.7,00.0,35.6,28.3,09.5,0000.0,0017.39,0009.90,0009.10
2023-02-03 02:52:00,,0833.5,5.03,0.00,26.6,24.7,00.0,35.6,28.3,09.5,0000.0,0018.17,0010.12,0009.29
2023-02-03 02:53:00,,0833.4,5.02,0.00,26.6,24.7,00.0,35.6,28.3,09.6,0000.0,0019.20,0010.45,0009.61
2023-02-03 02:54:00,,0833.4,5.01,0.00,26.6,24.7,00.0,35.5,28.3,09.6,-000.2,0019.52,0010.76,0009.92
2023-02-03 02:55:00,,0833.4,4.98,0.00,26.5,24.7,00.0,35.5,28.3,09.6,-000.9,0019.98,0011.07,0010.20
2023-02-03 02:56:00,,0833.4,4.99,0.00,26.5,24.7,00.0,35.5,28.3,09.6,-000.6,0020.39,0011.33,0010.43
2023-02-03 02:57:00,,0833.5,4.98,0.00,26.5,24.8,00.0,35.5,28.3,09.6,-000.3,0020.23,0011.52,0010.65
2023-02-03 02:58:00,,0833.4,5.01,0.00,26.5,24.8,00.0,35.5,28.3,09.6,-000.2,0019.53,0011.80,0010.90
2023-02-03 02:59:00,,0833.4,5.01,0.00,26.5,24.8,00.0,35.5,28.3,09.6,-000.1,0019.87,0012.12,0011.19
